Home   Weather   Gjøvik   Past weeks

Flag for Norway Past Weather in Gjøvik, Norway — Yesterday and Last 2 Weeks

Now
30 °F

Chilly.


Feels Like: 30 °F
Forecast: 23 / 31 °F
Wind: 1 mph from North

Location: Lillehammer-Saetherengen

Current Time: Jan 20, 2017 at 2:54:01 pm

Latest Report: Jan 20, 2017 at 2:00 pm


Visibility: N/A

Pressure: 30.16 "Hg

Humidity: 94%

Dew Point: 28 °F

Location of GjøvikLocation

Past Weather in Gjøvik — Graph

°F

Gjøvik Temperature Yesterday

Maximum temperature yesterday: 32 °F (at 9:00 pm)
Minimum temperature yesterday: 15 °F (at 1:00 am)
Average temperature yesterday: 22 °F

High & Low Weather Summary for the Past Weeks

 TemperatureHumidityPressure
High39 °F (Jan 11, 4:00 am)99% (Jan 12, 6:00 am)30.67 "Hg (Jan 12, 6:00 am)
Low0 °F (Jan 6, 4:00 am)75% (Jan 15, 2:00 pm)28.58 "Hg (Jan 11, 4:00 pm)
Average19 °F91%29.87 "Hg
* Reported Jan 5 1:00 pm — Jan 20 1:00 pm, Gjøvik, Weather by CustomWeather, © 2017

Note: Actual official high and low records may vary slightly from our data, if they occured in-between our weather recording intervals... More about our weather records

Advertising

Gjøvik Weather History for the Previous 24 Hours

Scroll right to see more
 ConditionsComfort  
Time TempWeatherWind HumidityBarometerVisibility
1:00 pm
Fri, Jan 20
33 °FChilly.1 mph96%30.16 "HgN/A
12:00 pm29 °FChilly.1 mph97%30.17 "HgN/A
11:00 am27 °FChilly.1 mph98%30.18 "HgN/A
10:00 am28 °FChilly.1 mph97%30.17 "HgN/A
9:00 am29 °FChilly.2 mph98%30.14 "HgN/A
8:00 am28 °FChilly.1 mph97%30.13 "HgN/A
7:00 am28 °FChilly.2 mph98%30.12 "HgN/A
6:00 am27 °FChilly.1 mph98%30.13 "HgN/A
5:00 am25 °FCold.1 mph97%30.12 "HgN/A
4:00 am24 °FCold.2 mph97%30.14 "HgN/A
3:00 am25 °FCold.2 mph97%30.13 "HgN/A
2:00 am29 °FChilly.2 mph97%30.14 "HgN/A
1:00 am29 °FChilly.1 mph97%30.17 "HgN/A
12:00 am28 °FChilly.1 mph97%30.19 "HgN/A
11:00 pm
Thu, Jan 19
29 °FChilly.2 mph96%30.19 "HgN/A
10:00 pm29 °FChilly.1 mph96%30.19 "HgN/A
9:00 pm32 °FChilly.1 mph96%30.19 "HgN/A
8:00 pm30 °FChilly.1 mph95%30.19 "HgN/A
7:00 pm28 °FChilly.2 mph95%30.18 "HgN/A
6:00 pm31 °FChilly.2 mph95%30.16 "HgN/A
5:00 pm27 °FChilly.1 mph93%30.15 "HgN/A
4:00 pm26 °FChilly.2 mph93%30.14 "HgN/A
3:00 pm26 °FChilly.2 mph92%30.13 "HgN/A
2:00 pm24 °FCold.2 mph90%30.11 "HgN/A
Weather by CustomWeather, © 2017

See weather overviewHow to use our weather pages